Flag for Canada Weather past 2 weeks in Delta, British Columbia, Canada

Now
66 °F

Partly sunny.


Feels Like: 66 °F
Forecast: 54 / 72 °F
Wind: 9 mph from South

Location: Vancouver International Air-Port

Current Time: Jul 22, 2014 at 11:32:15 AM

Latest Report: Jul 22, 2014 at 10:00 AM


Visibility: 30 mi

Pressure: 30.03 "Hg

Humidity: 64%

Dew point: 54 °F

Location of DeltaLocation

Historic Weather in Delta — Graph

°F

Delta temperature yesterday

Maximum temperature yesterday: 70 °F (at 1:00 PM)
Minimum temperature yesterday: 57 °F (at 5:00 AM)
Average temperature yesterday: 64 °F

Past Weeks' High & Low Weather Summary

 TemperatureHumidityPressure
High81 °F (Jul 14, 7:00 PM)100% (Jul 8, 5:00 AM)30.15 "Hg (Jul 8, 5:00 AM)
Low57 °F (Jul 15, 5:00 AM)45% (Jul 14, 7:00 PM)29.88 "Hg (Jul 10, 8:00 PM)
Average67 °F73%30.00 "Hg
* Reported Jul 7 9:00 AM — Jul 22 9:00 AM, Delta, Weather by CustomWeather, © 2014

Note: Actual official high and low records may vary slightly from our data, if they occured in-between our weather recording intervals... More about our weather records

Advertising

Delta weather history for previous 24 hours

 ConditionsComfort  
Time TempWeatherWind HumidityBarometerVisibility
9:00 AM
Jul 22
64 °FPartly sunny.8 mph73%30.03 "Hg30 mi
8:00 AM63 °FScattered clouds.10 mph73%30.02 "Hg30 mi
7:00 AM59 °FScattered clouds.8 mph82%30.02 "Hg30 mi
6:00 AM57 °FPassing clouds.8 mph82%30.01 "Hg15 mi
5:00 AM57 °FPassing clouds.10 mph88%30.01 "Hg15 mi
4:00 AM61 °FOvercast.7 mph77%30.00 "Hg15 mi
3:00 AM61 °FOvercast.9 mph77%30.00 "Hg15 mi
2:00 AM61 °FClear.8 mph72%30.00 "Hg15 mi
1:00 AM59 °FClear.9 mph77%29.99 "Hg15 mi
12:00 AM61 °FClear.8 mph72%29.99 "Hg15 mi
11:00 PM
Jul 21
63 °FClear.7 mph68%29.99 "Hg20 mi
10:00 PM64 °FPassing clouds.3 mph60%29.98 "Hg20 mi
9:00 PM64 °FPassing clouds.7 mph56%29.97 "Hg30 mi
8:00 PM68 °FPartly sunny.10 mph49%29.97 "Hg30 mi
7:00 PM68 °FPassing clouds.10 mph56%29.98 "Hg30 mi
6:00 PM70 °FPassing clouds.12 mph57%29.98 "Hg20 mi
5:00 PM70 °FPassing clouds.10 mph50%29.99 "Hg20 mi
4:00 PM70 °FPassing clouds.13 mph57%30.00 "Hg20 mi
3:00 PM70 °FPassing clouds.14 mph57%30.01 "Hg20 mi
2:00 PM70 °FPassing clouds.14 mph60%30.02 "Hg20 mi
1:00 PM70 °FPassing clouds.9 mph53%30.03 "Hg20 mi
12:00 PM68 °FScattered clouds.7 mph60%30.03 "Hg20 mi
11:00 AM66 °FScattered clouds.7 mph64%30.03 "Hg20 mi
Weather by CustomWeather, © 2014

See weather overviewHow to use our weather pages